星链-34707 (STARLINK-34707)

导读 | 豆包AI

STARLINK-34707是美国SpaceX公司星链(Starlink)星座的组网卫星,于2025年8月14日发射入轨。作为星链低轨卫星互联网项目的一部分,它运行在近地轨道,搭载先进通信载荷与霍尔推进系统,具备自主避撞能力,旨在为全球偏远、传统网络覆盖不足区域提供高速低延迟宽带服务,助力推进星链全球网络覆盖的建设目标。

基本信息
目录编号:
65176
目录名称:
STARLINK-34707
国际标识:
2025-175C
轨道中心:
EARTH
卫星名称:
星链-34707
卫星全名:
星链-34707 (STARLINK-34707)
卫星状态:
在轨 (已飞行212 天)
发射日期:
2025-08-14 UTC
国别 :
美国 (US)
星等 :
--
轨道信息
数据来源 国际轨道数据
星历时间: 2026-03-14T06:11:56+0800
15小时前
查看轨道信息
半长轴: 6927.633km
偏心率: 0.0002424
轨道倾角: 97.605°
近地点辐角 59.745°
升交点赤经 306.767°
平近点角 300.402°
近地点: 547.816km
远地点: 551.176km
周期: 95.639分钟
每日圈数: 15.056552
详细信息
固有亮度:
5
最大亮度:
2.5
卫星平台:
Starlink V1.0
覆盖范围:
全球
运营商:
太空探索技术公司
运营商所在国:
美国
制造商(研发单位):
太空探索技术公司
制造商所在国:
美国
使用方式:
暂无
卫星简介
Starlink 计划是 SpaceX 推出的全球卫星互联网项目,通过发射低轨道卫星,为全球尤其是偏远地区提供高速、低延迟的互联网服务。自 2019 年起,Starlink 已部署数千颗卫星,旨在缩小全球数字鸿沟,推动互联网普及。该项目还为军事、航空等行业提供通信支持,带来广泛经济效益。
2D轨道图
3D轨道图
轨道高度分析图
轨道倾角分析图
轨道综合分析图
查看轨道综合分析图